Wind_Speed
48 45 44 49 57 62 60 55 52 50 50 48 46 43 40 39 38 42 45 44 40 30 28 34 30 25 29 33 37 39 42 43 43 42 41 42 42 41 41 39 38 37 37 40 43 46 46 45 44 44 45 46 45 46 47 48 48 48 50 51 51 51 51 51 52 52 53 53 53 53 53 52 52 52 53 54 55 57 58 59 59 58 57 56 55 54
46 42 44 52 58 59 58 56 55 53 52 50 48 45 42 40 40 43 45 46 41 29 26 32 30 26 28 32 36 39 42 43 44 44 44 43 41 42 43 41 39 36 35 37 39 42 43 44 44 44 45 46 45 46 47 48 48 49 50 50 51 51 51 50 50 51 53 53 54 55 55 54 53 53 54 55 56 58 59 60 60 59 58 58 57 57
42 39 44 52 54 54 54 55 56 54 52 50 49 48 43 43 44 41 44 47 41 30 27 30 27 24 27 31 37 40 40 41 42 44 45 45 43 43 44 44 42 39 37 37 38 40 40 41 42 43 44 45 45 46 46 47 47 49 49 50 50 50 50 50 50 51 52 53 54 55 55 55 55 55 56 56 57 59 60 60 59 58 58 58 58 59
38 39 46 49 50 51 52 54 56 53 50 49 49 48 44 45 46 40 41 46 41 32 31 31 25 22 25 31 36 39 38 38 40 42 44 45 46 47 47 47 46 43 40 39 39 39 38 39 40 41 42 42 43 44 44 45 46 48 49 50 50 50 51 51 51 51 52 53 54 55 56 56 57 57 58 58 59 60 60 60 59 58 58 59 59 60
40 44 48 47 49 51 51 53 56 55 51 47 49 50 46 46 47 41 41 44 40 34 35 34 25 20 25 30 34 38 38 38 40 41 43 46 48 51 51 50 49 47 45 42 42 41 40 40 39 40 41 41 41 42 43 44 46 48 49 49 50 50 51 52 52 53 54 56 57 58 59 59 59 59 59 59 59 59 60 60 59 59 60 61 61 62
43 50 53 51 51 53 53 53 56 59 54 47 48 53 51 49 47 45 44 44 39 34 36 36 27 20 23 27 29 36 39 39 40 41 44 46 47 51 53 53 52 49 47 45 45 45 44 43 42 42 42 42 43 44 44 46 47 48 49 50 51 52 53 54 55 56 58 59 60 61 61 61 61 60 60 60 60 60 61 61 62 62 63 63 63 64
46 54 57 55 54 54 54 54 57 63 58 48 47 53 55 51 50 48 48 47 40 35 35 37 33 25 22 24 27 34 39 40 42 43 46 47 46 49 52 54 55 53 49 48 47 47 47 46 46 46 46 46 47 47 48 49 50 51 52 53 54 55 56 57 58 59 60 61 61 62 62 62 61 60 60 60 61 62 63 63 63 64 64 64 64 65
52 56 56 57 58 57 56 57 59 63 60 51 49 54 55 54 54 52 51 51 45 41 37 37 40 36 29 27 31 33 36 39 41 44 47 48 48 50 53 55 57 55 52 51 50 49 49 49 49 48 49 50 50 51 52 53 54 54 54 55 55 57 58 58 59 60 60 60 60 61 62 62 62 61 61 61 62 64 64 64 65 65 66 66 66 66
60 60 58 60 61 60 60 61 62 63 61 56 56 57 57 57 57 56 55 53 50 45 37 34 43 46 36 32 36 34 31 34 39 43 46 48 48 49 53 56 58 57 54 54 54 53 52 51 51 51 51 52 52 53 54 55 56 55 55 55 55 57 58 59 60 60 61 61 61 62 63 65 65 64 62 62 64 66 66 67 67 68 68 69 70 70
64 63 62 62 61 62 63 64 65 67 66 65 64 63 61 60 59 60 58 55 55 47 36 34 42 49 40 31 36 36 31 34 37 41 45 47 48 48 51 56 58 58 56 55 56 56 56 55 55 55 54 55 55 55 57 57 57 57 56 57 57 58 59 61 62 62 63 63 63 64 65 67 67 67 65 64 66 68 69 69 70 71 72 73 74 75
68 67 66 65 65 65 66 68 69 72 72 70 70 68 67 66 64 64 61 59 59 48 40 42 45 51 42 28 31 35 35 38 40 43 46 47 48 48 51 56 56 57 57 55 57 59 59 59 59 59 59 59 59 60 61 61 61 60 60 60 60 60 61 62 63 64 65 65 65 65 67 69 70 71 70 69 69 70 71 72 73 74 75 76 77 78
72 71 70 71 70 69 71 73 73 75 76 75 74 72 72 71 68 67 65 63 61 50 46 49 51 54 42 27 31 36 37 41 42 44 45 45 49 48 50 57 58 57 56 55 56 59 60 60 61 61 61 61 62 63 63 63 63 63 62 62 62 62 63 64 65 67 68 68 68 68 69 71 73 74 75 75 74 73 73 74 75 76 77 78 79 79
76 73 73 73 73 75 76 75 74 76 78 78 77 75 74 73 71 71 69 68 64 55 51 54 54 52 41 33 37 39 41 45 44 44 45 46 49 48 49 56 60 59 57 56 57 58 59 60 61 61 61 62 62 63 64 64 64 63 63 64 64 65 65 66 67 68 70 71 71 71 72 74 76 77 78 79 79 78 77 77 78 79 80 80 81 82
80 76 74 74 75 77 78 76 76 76 78 79 77 77 77 75 76 77 74 70 67 62 59 59 56 48 40 39 43 42 44 47 47 49 50 50 52 50 49 54 60 60 58 57 58 60 60 61 62 63 63 63 63 64 64 64 64 64 65 66 67 68 67 68 68 69 71 72 73 74 76 77 79 80 81 83 85 84 83 83 83 84 85 85 86 86
84 79 75 78 79 76 75 76 78 78 78 76 76 80 81 80 83 84 79 73 71 68 65 63 59 49 42 43 44 45 46 47 49 51 53 55 55 54 53 57 63 64 63 62 62 64 65 64 64 64 65 65 65 65 65 65 66 66 67 68 69 69 69 69 69 69 71 73 74 77 79 79 81 82 84 86 87 88 89 89 89 90 90 91 91 91
89 81 75 81 83 77 74 77 80 82 79 75 77 81 83 84 89 91 86 80 78 76 68 63 59 50 45 46 45 46 48 50 53 54 54 56 57 56 56 59 65 67 67 67 65 66 68 67 66 65 65 66 66 67 68 69 69 70 70 71 71 71 71 71 71 71 73 74 76 79 81 81 81 83 84 86 87 89 92 93 93 94 95 95 95 94
92 86 81 84 86 83 82 83 84 86 84 80 80 82 84 88 92 93 92 89 87 83 70 63 62 54 49 49 46 46 50 54 58 58 58 58 60 61 61 63 65 66 69 71 69 70 71 71 71 70 69 68 68 70 70 71 72 73 74 74 73 73 73 74 75 75 76 77 79 82 83 83 83 83 85 87 88 90 93 96 96 96 97 97 96 95
97 95 90 88 88 88 89 89 90 90 90 89 87 86 88 90 90 92 96 95 93 90 76 65 66 65 58 51 48 50 53 55 57 59 60 62 64 65 65 67 69 68 70 74 75 77 77 77 77 76 74 73 72 73 73 73 74 76 78 77 76 75 76 77 79 79 80 81 82 84 85 85 85 86 88 89 90 91 94 97 98 99 99 97 95 95
101 102 99 94 93 93 93 92 92 92 95 98 97 96 96 93 92 93 97 98 97 96 86 71 67 67 61 54 54 59 60 58 57 60 63 67 69 68 67 70 73 71 72 77 81 83 85 85 84 82 79 78 78 79 78 78 78 81 84 83 81 81 81 82 83 83 84 84 85 87 87 87 87 89 91 92 92 94 95 97 100 101 100 98 96 96
105 107 105 101 98 97 97 97 96 95 98 102 103 104 103 101 99 99 100 102 101 101 98 87 76 66 58 58 60 60 62 61 62 66 70 73 74 73 73 75 78 79 79 81 83 84 86 89 89 86 82 81 83 84 85 84 85 88 89 88 86 86 86 86 86 87 87 88 90 90 91 91 91 92 93 94 95 96 98 99 100 99 98 98 98 98
109 111 111 109 107 105 103 100 99 99 101 105 107 107 106 104 104 105 105 105 104 106 107 104 95 72 55 59 63 60 63 66 66 71 73 73 75 76 77 78 80 82 82 81 82 84 88 90 90 88 86 85 86 87 88 88 90 91 92 92 92 90 90 90 90 91 91 92 93 93 95 95 95 95 96 97 98 99 101 101 101 99 98 98 98 99
113 114 115 115 114 113 108 103 103 104 104 107 108 108 107 106 108 111 113 111 109 112 114 115 113 85 59 63 69 66 70 74 74 77 77 77 79 80 81 82 82 85 84 83 84 87 90 91 92 92 91 92 95 96 95 94 95 94 94 95 95 93 93 93 95 95 95 95 95 95 97 97 98 99 100 101 101 102 102 102 101 100 99 99 100 100
116 117 118 119 118 117 113 110 111 110 110 111 112 112 110 111 114 116 119 120 118 121 121 120 123 104 77 77 82 75 77 82 82 84 85 87 90 90 90 91 91 92 92 91 92 92 93 95 97 98 98 100 103 104 104 103 101 99 97 97 96 95 95 96 97 97 96 96 96 96 96 96 98 99 100 101 102 102 102 102 102 102 101 101 102 102
120 121 122 123 123 123 122 119 117 116 117 119 118 118 117 117 119 120 122 124 123 125 126 124 127 117 96 91 93 87 85 89 90 92 95 96 97 97 98 99 99 99 100 100 101 100 100 101 104 105 105 106 108 109 108 108 107 105 104 103 101 100 100 100 99 99 99 99 98 96 95 95 96 97 98 99 100 100 101 101 102 103 103 103 104 104
127 129 131 133 135 136 135 132 130 127 127 127 126 124 123 122 122 123 123 125 126 127 127 128 131 124 109 101 102 98 95 96 96 97 99 100 101 103 104 105 105 105 105 105 106 106 107 108 110 111 111 112 112 112 110 109 108 108 107 107 106 105 105 105 104 103 103 102 101 99 98 98 98 98 99 100 100 101 101 102 103 104 104 105 105 105
139 142 145 148 150 150 148 143 140 136 135 135 133 131 129 128 127 127 127 129 130 129 129 131 132 127 119 113 110 106 102 102 101 100 102 103 106 108 109 110 110 110 109 109 109 111 113 114 116 116 116 117 117 115 114 112 111 110 110 109 108 107 107 107 107 106 106 105 104 102 101 101 101 101 102 102 102 103 104 104 104 105 105 105 104 103
150 152 153 154 155 155 152 148 145 143 141 140 137 135 133 131 131 132 133 133 132 132 133 133 131 128 125 123 118 113 110 107 105 104 106 109 111 112 112 112 112 111 110 110 112 115 117 119 120 120 121 121 121 119 118 115 114 113 113 112 111 110 109 109 109 109 108 107 106 105 104 104 104 104 105 105 106 106 105 105 104 104 104 103 103 103
154 155 155 153 153 152 150 148 146 145 144 142 139 136 133 131 130 131 133 134 134 136 136 133 130 130 130 128 125 121 117 113 111 110 112 114 115 114 114 113 112 111 111 112 115 118 122 123 124 124 124 124 123 122 120 118 117 115 114 113 112 112 111 111 111 111 110 109 108 107 106 106 107 107 108 108 107 105 103 102 102 102 102 102 102 102
152 151 151 149 148 147 145 143 142 142 140 139 138 136 133 131 130 130 131 130 130 132 132 129 129 131 131 129 127 125 122 121 121 120 119 118 117 116 116 116 115 114 114 116 119 122 124 126 126 127 127 126 124 123 122 121 119 117 115 114 113 113 113 113 113 112 111 110 110 109 109 108 108 108 108 106 104 102 101 101 101 101 101 101 100 100
145 144 143 142 141 140 139 138 137 136 136 135 135 133 132 131 130 130 129 127 126 127 127 127 128 128 127 126 126 125 125 127 128 126 123 120 118 118 119 119 118 118 117 117 119 121 122 123 124 124 125 124 123 123 123 121 120 118 116 115 114 114 114 114 113 113 112 111 110 110 109 108 107 106 104 103 102 101 101 101 101 101 100 100 100 101
137 136 134 134 134 135 133 131 132 132 133 133 132 129 128 128 127 127 126 124 124 124 124 125 126 125 122 121 121 122 123 125 125 124 121 119 117 118 121 121 119 118 117 116 117 119 120 121 121 121 121 121 120 119 119 118 117 117 115 114 114 115 115 115 114 113 112 111 109 108 107 106 105 104 103 103 102 102 101 102 102 102 102 102 102 102
130 129 128 128 130 130 127 125 126 128 130 133 131 128 125 124 124 124 123 124 124 125 124 125 125 123 120 119 120 122 121 121 122 122 121 119 118 118 122 123 121 120 121 120 120 122 122 122 122 122 122 121 119 117 115 114 112 111 111 111 113 114 114 113 112 110 109 108 107 106 106 106 105 105 105 105 104 104 104 104 104 104 105 105 105 105
125 125 124 125 128 126 122 120 122 124 129 131 128 125 124 123 124 125 124 124 124 124 126 127 126 123 121 121 123 123 123 123 123 122 121 120 120 120 122 124 125 126 126 126 126 127 126 124 123 123 123 123 121 119 116 113 109 107 107 107 108 108 109 108 108 107 107 107 107 107 107 108 108 108 108 107 107 107 108 108 109 110 111 111 110 109
122 122 122 124 126 125 121 119 121 125 128 125 120 118 121 123 126 127 126 125 125 126 127 129 128 126 125 126 126 126 126 125 123 122 122 123 124 125 125 126 128 129 129 129 130 131 129 127 125 123 122 122 121 120 118 115 112 110 110 110 110 109 108 109 109 109 109 110 111 111 112 112 112 111 111 110 111 112 113 114 115 117 117 117 115 114
123 123 123 123 125 125 122 121 124 127 125 120 116 115 117 119 122 125 126 127 128 130 132 134 133 131 130 130 129 128 127 126 126 126 126 126 128 129 129 129 130 131 132 133 133 132 130 127 125 123 122 121 120 119 118 115 113 113 113 114 113 112 112 111 112 112 113 113 114 115 115 115 115 114 114 115 116 117 118 119 121 122 122 120 119 117
125 125 126 126 126 126 124 124 125 125 122 119 118 116 115 116 118 122 125 125 127 131 135 136 135 131 130 131 130 129 129 129 130 129 127 128 131 131 132 131 131 131 132 133 133 132 130 127 124 122 121 120 119 118 117 116 114 113 113 114 114 114 114 114 114 114 115 116 117 117 117 117 118 118 118 119 119 120 121 122 123 124 123 121 120 118
123 125 126 128 128 127 126 125 124 122 121 119 117 115 114 115 116 120 124 125 125 129 132 131 127 126 127 128 128 129 129 130 129 127 127 129 131 131 130 130 130 130 130 130 131 130 127 124 122 121 119 119 119 117 116 115 114 113 113 113 113 113 114 114 115 115 117 118 119 119 119 119 120 120 121 121 122 123 124 125 125 125 123 120 118 116
121 122 124 126 126 125 126 126 124 122 119 116 114 114 114 115 116 120 125 126 125 127 126 123 120 120 121 123 125 126 126 127 126 125 125 127 128 128 128 128 128 127 126 126 125 124 122 120 119 118 118 118 118 117 117 116 114 113 112 111 111 112 113 113 113 115 117 118 118 118 118 119 120 121 122 122 123 124 125 125 124 121 119 117 115 113
118 119 121 123 124 124 125 125 124 122 119 116 114 113 113 115 118 122 125 124 122 123 123 119 118 117 117 117 119 119 120 122 121 120 120 121 122 123 124 124 124 124 123 121 120 118 117 116 116 116 116 116 117 117 117 116 114 113 112 111 111 110 110 110 111 113 114 114 114 115 115 117 118 119 121 121 122 122 122 121 119 116 115 114 113 110
116 118 120 122 124 124 125 125 124 123 121 118 116 114 113 114 116 120 123 121 118 120 122 119 118 116 113 112 112 112 113 114 114 113 115 116 117 118 119 120 121 121 120 119 118 116 114 114 114 115 116 116 116 117 117 115 113 113 112 111 110 109 108 109 110 110 111 111 111 112 113 115 116 117 118 118 118 117 116 114 113 112 111 111 109 107
115 118 120 122 123 124 125 126 125 124 123 121 120 118 115 113 115 119 121 118 115 117 119 119 118 115 112 110 108 107 107 109 109 108 109 110 111 112 114 116 117 118 118 117 116 115 114 113 113 114 114 115 115 116 115 114 112 111 110 109 108 106 106 106 107 108 109 108 108 109 111 112 113 113 114 114 113 111 109 108 106 106 107 107 107 106
114 117 119 120 121 122 125 126 126 126 124 122 121 119 117 117 118 119 118 115 114 115 117 118 117 115 113 110 107 105 104 105 105 104 103 104 105 106 109 111 113 114 115 114 113 112 112 112 112 112 112 113 113 113 113 112 110 109 108 107 106 105 104 104 105 107 108 107 106 107 108 109 110 110 110 109 107 105 103 102 102 103 104 106 106 106
114 115 116 117 119 121 123 125 126 125 122 120 119 118 119 121 122 120 118 117 117 118 118 117 117 116 114 111 108 106 104 102 102 102 101 101 102 103 105 107 109 110 111 111 111 110 111 111 110 110 111 111 111 111 110 110 109 108 107 106 104 104 103 103 105 106 106 105 105 105 106 107 107 107 106 104 103 102 101 101 102 103 105 106 107 107
114 114 114 114 116 119 121 121 120 120 118 117 118 119 121 123 124 123 122 120 120 121 121 118 117 117 116 113 110 108 106 104 103 101 101 101 101 103 104 104 105 106 107 108 109 110 111 111 110 110 111 111 110 110 109 108 107 106 106 105 104 103 103 103 104 105 104 104 104 104 105 106 106 105 104 103 102 101 101 101 103 104 106 107 107 107
112 112 114 114 114 116 118 115 112 113 114 115 116 118 121 123 123 123 122 122 123 124 124 121 119 118 118 116 113 110 108 106 104 102 101 101 101 103 104 103 104 104 104 105 107 109 110 111 111 111 112 112 111 110 109 108 107 106 106 106 105 105 104 104 104 104 104 104 105 105 106 106 106 106 105 105 103 102 102 103 104 105 107 108 107 106
111 111 112 113 113 113 112 110 109 110 110 110 113 117 120 122 122 120 119 120 122 124 125 123 121 119 118 118 116 112 110 108 107 105 104 103 102 103 104 103 103 103 103 104 105 107 108 109 109 110 112 112 112 111 109 108 107 106 106 106 106 105 105 106 106 106 106 106 107 107 107 108 108 108 107 107 105 104 104 105 105 105 106 107 106 105
111 113 112 111 112 112 109 107 109 112 108 105 109 114 118 120 120 118 117 118 119 120 121 121 120 118 117 116 115 113 110 108 107 107 106 105 104 104 103 103 102 102 102 103 104 105 106 106 106 107 109 110 111 111 110 108 107 106 105 105 105 105 106 106 107 107 107 108 108 108 109 109 110 110 109 108 107 106 105 105 104 103 103 104 104 104
108 111 112 111 111 112 109 107 110 113 109 105 107 111 115 116 116 116 116 117 118 118 117 117 117 117 116 114 113 112 108 106 105 106 105 105 105 104 103 102 101 101 101 102 102 103 103 103 103 103 105 106 107 109 110 108 106 106 105 104 104 104 104 105 106 106 107 108 108 108 109 109 110 110 109 108 107 106 104 103 101 100 100 100 101 102
104 106 108 109 111 109 108 109 112 113 108 105 109 114 116 115 114 113 114 115 116 116 114 113 113 113 114 114 112 111 108 105 104 104 104 103 103 104 103 102 100 99 99 100 100 100 100 100 100 101 101 100 101 104 107 105 103 103 104 103 102 102 103 104 104 105 105 106 106 106 107 109 109 109 108 107 106 105 103 101 99 97 96 97 98 100
101 101 101 106 108 106 105 108 113 112 107 104 108 114 116 114 112 111 111 112 113 113 112 110 109 109 110 112 111 111 108 105 103 103 102 101 101 102 102 101 100 98 98 99 99 99 99 99 99 98 98 97 97 99 102 102 100 100 101 101 100 100 101 102 103 103 103 104 104 104 105 107 108 109 108 106 105 104 103 101 99 96 94 94 96 97
97 98 98 102 104 102 101 104 109 110 107 104 105 110 113 112 111 110 109 110 111 111 110 109 107 106 106 108 109 110 109 105 103 102 101 100 99 101 102 101 100 97 97 99 100 99 99 98 98 97 97 96 95 96 98 99 98 98 98 99 99 99 99 100 101 101 101 101 101 102 103 105 106 107 107 107 106 105 104 103 101 98 96 94 94 95
Wind_Direction
289 290 290 285 281 281 283 286 286 284 283 283 283 284 283 282 281 281 281 280 280 279 279 278 278 283 287 288 287 285 285 285 285 285 284 285 290 292 290 287 284 279 274 269 266 266 266 266 265 265 265 265 265 265 265 265 265 264 263 263 263 264 265 265 265 266 267 268 270 273 275 276 277 279 280 281 282 282 283 284 285 286 285 284 285 285
289 294 292 284 281 284 287 288 286 284 283 283 284 284 284 283 280 280 281 280 280 280 278 277 277 280 285 286 283 281 283 286 287 288 288 288 289 289 288 288 285 282 278 273 270 267 267 266 266 265 265 265 265 265 265 265 266 266 265 264 264 264 265 266 267 268 268 269 270 273 274 275 277 277 278 279 279 280 280 281 283 284 284 284 284 284
294 297 289 284 287 290 290 288 286 284 284 285 285 284 283 282 279 278 281 281 282 283 283 281 279 282 286 284 281 280 282 285 287 290 291 292 290 285 284 283 283 282 280 277 275 272 270 269 267 266 266 266 266 265 265 265 265 265 265 264 264 265 267 267 269 269 270 270 271 272 273 275 275 275 276 276 277 278 278 278 279 280 281 281 282 282
297 294 287 288 291 290 289 289 288 288 287 287 286 284 282 280 277 275 276 278 282 284 284 281 280 287 285 280 282 282 282 284 286 289 291 291 289 286 284 283 282 283 281 279 277 275 272 270 268 267 267 267 267 266 266 265 265 264 264 265 266 267 268 269 269 270 270 270 270 271 272 273 273 274 274 275 276 276 276 276 277 278 278 279 279 279
296 291 287 288 288 288 290 291 292 291 289 288 287 285 282 278 277 275 272 272 276 280 281 278 278 286 282 277 282 284 282 283 285 287 288 287 287 287 286 284 283 282 281 280 279 278 276 273 271 270 270 269 269 268 267 266 265 264 264 266 267 268 269 269 270 270 270 270 271 272 272 272 272 273 274 274 275 275 275 275 276 277 277 277 277 277
294 289 285 285 285 287 290 292 292 290 287 288 290 288 283 279 278 277 273 271 271 272 274 275 274 274 276 278 281 283 285 286 288 288 284 282 284 285 285 285 283 281 281 280 280 279 279 278 277 276 275 274 272 271 269 268 266 266 266 267 268 270 270 271 272 272 272 273 273 273 272 272 273 274 275 275 276 276 276 277 277 278 278 278 278 277
291 284 284 287 286 286 289 291 289 286 287 292 291 286 285 284 281 279 276 275 273 269 268 271 269 261 262 271 271 275 284 290 291 288 282 281 283 283 283 284 283 283 282 281 280 280 280 280 279 279 278 277 275 273 271 269 268 268 269 270 272 273 274 274 275 274 274 274 273 273 274 274 275 276 277 277 278 278 279 279 279 280 280 279 279 279
287 283 285 286 285 287 289 287 284 285 289 292 287 283 284 285 282 281 279 278 277 274 271 271 269 259 251 258 264 270 282 286 285 282 281 282 283 284 285 285 284 285 286 286 284 283 283 283 282 282 281 279 278 277 275 274 273 273 274 275 276 277 277 277 277 277 276 276 276 276 276 276 277 278 278 279 279 280 280 280 280 280 280 280 280 280
284 284 285 284 285 287 287 285 284 285 288 288 284 283 283 284 284 283 281 280 278 277 277 273 269 262 250 249 262 271 277 276 272 272 274 276 279 283 284 282 284 285 287 288 288 288 287 286 286 284 283 282 281 280 279 279 278 279 280 280 281 281 281 281 280 280 279 279 280 280 280 280 280 280 280 280 280 281 281 281 281 280 280 280 280 280
283 283 283 284 285 285 285 285 285 285 286 286 284 284 284 284 284 283 282 282 279 279 280 271 264 262 256 251 261 268 269 265 262 263 266 270 275 277 277 276 279 282 285 287 288 289 288 287 286 284 283 282 282 281 281 281 281 282 283 284 284 284 283 283 282 282 282 282 282 283 283 283 283 282 282 281 281 281 281 281 281 281 281 281 281 281
282 282 283 283 282 281 282 283 283 284 284 284 284 285 285 284 283 282 282 281 279 280 278 270 263 263 263 259 259 263 264 262 261 263 266 269 271 273 274 274 275 278 283 287 288 288 288 286 285 283 283 282 282 282 282 282 283 284 285 285 285 284 284 284 284 284 284 284 284 284 284 284 284 284 284 282 281 281 281 281 282 282 282 282 282 282
281 282 283 282 281 281 280 280 281 283 283 283 283 284 284 284 283 282 282 280 280 280 274 268 265 265 269 268 258 254 254 256 259 263 267 268 268 269 271 272 273 275 279 284 286 286 286 285 284 283 282 282 283 283 283 283 284 285 285 285 285 285 284 284 285 285 285 286 285 285 285 285 286 286 286 285 283 282 282 282 282 282 282 283 283 284
280 282 283 282 281 281 280 281 282 282 282 282 283 284 283 282 282 282 282 281 279 278 272 267 265 267 273 271 261 254 250 252 256 260 262 262 263 265 268 271 274 276 278 280 281 281 282 282 282 281 281 282 282 282 283 283 284 284 285 285 285 285 285 286 286 286 286 286 286 286 286 286 286 287 286 286 285 284 283 282 282 282 283 283 283 284
280 280 282 283 281 280 280 282 283 282 282 283 284 283 281 281 282 282 281 280 278 275 272 269 268 270 272 267 263 259 256 257 259 259 259 258 258 261 266 271 274 276 277 278 279 279 279 279 279 279 279 279 280 280 281 281 282 283 284 284 285 285 285 285 285 286 286 286 286 286 286 286 287 287 286 286 285 285 284 284 283 283 284 284 284 284
279 278 281 282 281 280 280 281 281 281 281 282 283 282 282 284 283 280 278 278 278 274 271 271 271 271 268 264 261 260 259 261 262 262 260 260 260 262 265 269 273 276 277 276 276 277 277 277 277 278 278 279 279 279 280 281 281 282 283 283 283 284 284 284 284 285 284 285 285 285 285 286 287 287 287 287 287 287 287 287 286 286 286 286 286 286
278 278 278 278 280 282 281 280 279 279 280 281 281 281 283 282 280 280 280 279 277 274 270 270 271 270 266 264 263 263 263 263 263 262 261 262 263 264 266 269 273 275 275 274 274 274 275 275 275 276 276 277 278 278 278 279 279 280 280 280 281 281 282 283 282 282 282 283 283 284 285 285 286 286 287 287 288 288 289 289 289 289 289 288 288 288
279 279 277 277 280 282 282 281 280 280 281 281 281 281 281 279 278 280 281 280 277 275 271 268 267 265 263 264 266 265 265 265 265 265 265 264 263 264 265 268 270 272 275 276 275 274 275 275 275 275 275 275 275 275 276 277 278 278 278 278 278 279 280 280 280 280 280 281 282 283 284 285 286 286 286 287 287 288 289 289 290 290 290 289 289 288
282 282 280 279 280 280 282 282 282 283 284 283 282 280 277 276 278 279 280 280 280 278 275 269 265 263 261 262 263 262 263 265 266 268 269 268 267 267 267 267 267 268 272 277 278 278 277 277 276 276 276 276 276 275 276 276 278 279 278 277 277 278 279 279 279 279 280 281 282 283 284 285 285 285 285 286 287 288 289 290 290 291 290 289 288 288
284 283 282 281 281 281 281 280 282 285 286 285 283 281 281 280 280 280 280 280 281 281 279 275 269 265 263 262 260 261 262 263 265 267 267 268 268 268 267 267 268 267 268 273 277 278 278 278 276 276 276 276 277 277 276 277 278 278 277 276 277 277 278 278 279 279 280 281 282 283 283 284 284 284 285 286 286 287 288 289 290 290 290 289 288 288
284 282 282 282 281 280 281 283 285 284 282 281 282 283 285 285 284 282 280 280 282 284 283 280 273 267 265 263 260 260 263 263 264 265 265 266 266 266 266 267 269 269 268 271 275 277 277 276 275 275 275 276 277 277 278 278 278 277 276 276 276 276 277 278 279 280 280 281 281 282 282 283 283 283 284 285 286 286 287 288 289 289 288 289 289 290
282 282 282 283 282 282 283 285 284 280 278 280 282 283 284 284 283 282 281 281 283 284 285 283 278 269 262 264 263 262 263 263 262 262 263 265 266 267 267 267 267 268 268 270 274 275 276 276 277 278 278 279 278 278 279 279 278 277 277 277 276 277 277 278 279 279 280 281 281 281 282 282 283 283 284 284 285 285 286 286 286 287 287 288 289 290
281 281 282 283 284 285 284 282 280 278 279 280 281 281 282 283 283 283 283 283 284 284 284 284 283 277 268 271 272 267 265 265 264 265 267 269 270 271 271 270 268 268 268 268 269 270 272 275 277 278 278 278 279 279 279 279 278 278 277 277 278 278 278 278 278 279 279 280 280 281 281 281 282 282 282 283 283 283 283 284 284 285 286 287 288 289
280 280 280 281 281 282 281 279 279 279 279 278 279 280 281 281 282 282 284 284 284 284 284 284 285 283 280 281 279 274 272 273 274 276 278 279 279 279 278 276 275 275 275 275 273 273 274 276 278 278 277 278 280 281 282 282 281 281 279 278 278 278 278 278 278 279 279 280 280 280 281 281 280 280 281 281 281 282 282 282 283 284 285 286 287 288
279 278 278 278 279 279 279 278 278 278 277 277 277 278 278 279 280 281 282 282 281 282 283 283 283 284 284 282 280 278 278 280 281 283 283 282 281 281 280 279 280 281 281 281 280 281 281 281 281 281 281 281 281 281 282 282 283 283 283 281 280 280 280 280 280 281 282 282 283 283 283 282 281 280 280 280 280 281 281 282 283 284 285 285 286 286
278 277 277 277 278 278 278 278 278 277 277 276 275 276 276 277 277 278 278 278 278 279 281 282 282 283 283 281 280 280 281 281 282 282 280 279 279 280 280 280 281 282 281 282 282 283 283 282 282 282 281 281 280 280 281 281 282 283 283 283 283 283 283 283 283 284 284 285 285 285 284 283 283 282 281 281 281 281 282 282 282 283 283 284 284 286
278 278 279 279 280 280 280 279 278 277 275 274 274 274 274 274 274 274 274 274 275 277 278 279 280 282 282 281 280 279 279 279 279 278 276 276 277 278 279 281 281 282 282 282 282 282 282 283 283 282 281 281 280 280 281 281 282 283 283 283 283 283 283 283 284 284 284 285 285 285 284 284 283 283 283 283 282 282 282 282 282 282 282 283 285 286
279 279 280 280 280 281 281 281 280 278 277 276 275 274 273 273 272 272 272 272 273 274 274 275 277 279 279 279 278 277 276 276 275 274 274 274 275 276 277 278 278 279 279 279 280 281 281 282 281 281 281 281 280 281 281 282 282 282 283 283 282 282 282 282 283 283 284 284 284 284 284 284 284 284 284 284 284 283 283 283 282 283 283 284 284 285
279 279 279 278 279 279 279 279 279 279 279 278 278 277 275 274 272 271 271 272 272 272 273 274 275 275 275 275 275 275 275 274 273 272 272 273 274 274 274 275 275 275 276 277 278 279 279 279 279 279 279 279 280 280 280 281 280 281 281 281 281 281 281 281 282 282 283 283 283 284 283 283 283 284 284 284 284 283 283 283 283 283 283 283 283 283
277 277 277 277 277 277 277 277 277 277 278 278 278 278 277 276 275 273 272 272 272 273 273 273 272 272 272 273 273 274 275 274 273 272 272 272 272 272 272 272 272 273 274 275 276 276 277 277 278 278 278 278 278 278 278 278 278 279 279 279 279 279 279 280 280 281 281 282 282 282 282 282 282 283 283 283 283 283 283 283 284 283 283 283 283 284
276 276 276 277 277 276 276 276 276 276 276 276 276 276 276 276 276 275 275 275 274 273 273 272 271 271 271 272 272 273 273 273 273 273 273 273 273 272 273 273 273 273 274 274 274 275 275 276 276 276 276 277 276 276 276 277 277 277 277 277 278 278 278 278 279 279 280 280 280 280 281 282 282 282 283 283 284 284 284 285 285 285 285 285 286 286
275 275 275 275 275 275 275 275 276 276 275 275 274 274 275 275 276 277 277 277 276 274 274 273 273 272 273 274 274 274 273 274 275 275 276 277 277 278 278 278 278 278 277 277 277 277 277 277 277 277 276 276 275 275 275 275 276 276 276 276 276 277 277 278 278 279 279 280 281 281 282 283 284 285 285 285 285 286 287 287 288 288 288 288 288 288
274 274 274 274 273 273 274 274 274 274 273 273 273 274 274 275 276 276 276 276 276 277 277 276 276 276 277 277 277 276 276 276 277 277 278 279 280 280 280 281 281 281 281 281 281 281 281 281 281 280 280 279 278 277 276 275 275 274 274 274 274 275 276 277 278 279 281 282 283 284 285 286 286 287 287 288 288 289 289 290 290 290 290 290 290 290
273 274 274 274 273 273 273 272 271 270 269 269 270 272 273 273 273 273 273 274 275 276 276 276 276 277 277 277 276 276 276 276 277 278 279 279 279 278 279 280 280 280 281 281 282 281 281 282 282 282 282 282 282 282 281 280 279 278 277 276 276 277 279 280 281 282 284 285 286 286 287 287 288 289 289 290 290 291 292 292 292 293 293 292 292 292
274 274 273 272 272 273 273 272 271 269 268 268 269 269 268 269 269 270 271 272 272 271 272 273 274 274 274 273 273 274 275 276 277 277 277 277 277 277 277 277 278 278 279 279 280 280 282 282 283 283 282 282 282 282 282 282 282 282 281 281 282 282 283 284 284 285 285 286 287 287 288 288 289 290 290 291 292 292 293 293 293 293 293 293 293 293
275 274 273 272 272 272 271 271 269 268 269 270 270 268 267 266 266 267 268 268 268 267 268 269 271 271 271 271 272 273 274 275 275 274 274 275 276 276 276 276 276 277 278 278 279 281 282 283 283 282 281 281 280 280 281 281 281 281 281 282 282 283 284 284 284 285 285 286 286 287 288 289 289 290 290 291 291 292 292 292 292 292 292 292 293 293
275 275 274 273 272 271 270 269 269 270 271 270 269 268 268 267 267 266 266 266 265 264 264 265 267 269 270 271 271 272 272 272 273 273 274 274 274 275 275 276 276 277 278 279 280 281 282 282 281 281 280 280 279 279 280 280 280 280 280 280 281 281 282 282 283 283 284 284 285 286 286 287 288 288 288 289 289 289 289 289 289 290 291 291 292 292
273 273 273 273 272 272 272 272 271 271 271 270 270 270 269 268 267 267 267 267 266 264 264 265 267 269 269 269 270 270 270 271 271 272 273 273 273 274 275 276 276 277 277 277 277 278 278 278 278 278 278 278 278 278 278 278 278 278 278 278 279 279 280 280 281 281 281 281 282 282 283 283 284 284 285 285 286 286 286 287 288 288 289 290 290 291
272 272 272 272 273 273 273 273 273 273 273 273 273 272 271 270 269 268 267 267 267 267 266 267 268 268 268 268 268 268 269 269 270 271 271 272 273 274 274 275 275 275 275 275 275 275 276 276 276 276 276 277 277 278 278 278 278 278 278 278 279 279 279 279 279 279 279 279 279 280 280 280 281 281 282 282 283 283 284 285 286 287 289 289 290 290
271 272 272 272 273 273 273 274 274 274 275 275 273 272 271 270 269 268 267 268 270 270 269 269 269 268 268 268 268 268 268 269 270 271 271 272 272 273 273 273 274 274 274 274 275 275 275 275 275 276 276 276 277 277 278 278 279 280 280 280 279 279 279 279 279 278 278 278 278 279 279 279 279 279 280 281 281 282 284 285 286 288 289 289 289 289
271 271 271 272 272 273 273 274 274 274 274 274 273 272 271 270 269 269 269 270 271 271 271 270 269 269 268 269 269 269 269 270 270 270 271 271 271 271 272 272 273 273 274 274 274 275 275 275 275 275 276 276 277 277 278 278 279 279 280 280 280 280 280 280 279 279 278 278 278 278 278 278 278 279 280 281 282 283 284 286 287 288 288 288 288 288
270 269 270 270 271 272 272 273 273 274 274 273 273 273 272 271 270 270 270 270 271 271 271 271 271 271 270 270 270 270 270 270 270 269 269 270 270 270 271 271 271 272 272 272 273 274 274 275 275 275 275 276 276 277 278 278 279 279 280 280 280 281 281 280 280 280 279 279 278 278 278 279 279 280 280 281 282 284 285 286 287 287 287 287 287 287
269 268 268 268 269 270 270 271 271 271 272 272 273 274 274 273 272 271 271 272 272 272 271 271 271 272 271 271 271 270 269 269 269 269 268 269 269 269 270 270 270 271 271 272 272 273 274 274 275 275 276 276 277 277 278 279 279 279 280 280 280 280 280 280 280 279 279 279 279 279 279 280 280 280 281 282 283 284 285 286 286 286 285 285 286 287
269 268 268 268 268 267 267 268 268 269 271 272 273 274 273 273 272 273 273 272 272 272 272 272 272 272 272 272 272 271 270 269 269 269 269 269 269 269 269 270 271 272 273 274 274 274 275 275 275 276 276 277 277 277 278 278 279 279 279 279 279 279 279 279 279 279 279 279 280 280 280 280 280 280 281 282 283 284 285 285 284 284 284 285 287 288
270 270 269 268 267 267 267 267 268 270 271 271 271 271 270 270 270 271 272 272 272 272 272 272 273 273 273 273 273 272 272 272 271 271 271 271 271 271 271 271 271 272 273 274 275 275 276 276 276 276 276 276 277 277 277 277 278 278 279 279 279 278 278 278 278 278 279 279 279 279 279 280 280 281 281 282 283 284 284 284 284 284 285 286 287 288
271 270 270 269 268 268 268 268 269 269 269 269 269 269 268 268 268 268 269 270 271 271 272 273 273 273 274 274 274 274 274 274 274 273 273 272 272 271 271 271 271 271 272 272 273 273 274 275 275 276 276 276 276 276 276 276 277 277 277 278 278 278 278 278 278 279 279 279 279 280 280 280 281 281 282 282 283 284 284 284 284 285 285 286 287 288
272 271 271 271 270 270 270 270 270 268 267 267 268 267 267 267 267 267 268 268 268 269 270 271 272 272 273 273 274 274 274 275 275 274 274 273 273 272 272 271 271 271 271 271 271 271 272 273 274 274 275 275 275 275 275 275 275 275 276 276 277 277 278 278 279 279 279 279 279 280 280 280 281 281 282 283 283 284 284 284 285 285 285 285 286 286
273 273 272 272 272 272 271 271 270 269 267 266 266 265 266 266 267 267 267 267 267 267 268 269 270 271 271 272 272 273 273 274 274 274 274 274 273 273 272 272 272 272 272 271 271 271 271 271 272 272 273 274 274 274 274 274 274 274 274 274 275 276 276 277 277 278 278 278 278 279 279 279 280 280 281 282 282 283 283 283 283 283 283 284 284 285
273 273 273 273 273 273 272 271 270 269 269 268 266 265 265 265 265 266 266 267 267 267 268 268 269 270 270 271 271 272 272 272 272 272 273 273 273 273 273 272 272 272 271 271 271 271 271 271 271 271 271 272 273 274 274 274 274 274 274 274 274 275 275 275 276 276 276 276 277 277 278 278 278 278 279 280 280 281 281 281 281 281 281 282 282 283
272 272 272 272 271 271 272 271 270 269 268 268 268 267 266 265 265 265 265 266 266 267 268 268 269 270 270 271 271 272 271 271 271 271 271 271 272 272 272 272 272 271 271 271 271 271 271 271 271 271 271 271 272 273 274 274 274 275 275 274 274 274 274 274 274 274 274 275 275 275 276 276 276 277 277 278 279 279 280 279 279 279 279 280 281 282
271 270 270 270 270 270 270 270 270 270 269 268 268 268 268 267 267 266 266 266 266 267 268 268 268 269 270 271 272 272 272 271 271 270 270 271 271 271 272 272 271 271 271 271 271 271 270 270 270 269 270 270 270 271 273 273 273 274 274 274 274 273 273 273 273 273 273 273 274 274 275 275 276 277 278 279 279 280 280 279 279 279 279 280 281 282
272 271 269 268 268 268 268 268 269 270 270 269 268 268 269 269 269 269 268 268 268 268 269 269 269 269 269 270 270 271 272 272 271 271 271 270 270 271 271 271 271 271 271 272 272 271 271 270 269 269 268 268 268 269 270 270 271 271 271 271 271 271 271 271 272 272 272 272 273 273 274 275 276 277 278 279 279 279 280 280 280 280 280 280 280 281
Height
10749 10751 10752 10746 10735 10728 10731 10739 10742 10742 10741 10742 10743 10744 10745 10745 10745 10740 10735 10737 10738 10744 10746 10740 10743 10743 10735 10729 10724 10721 10719 10718 10718 10721 10721 10719 10720 10720 10719 10721 10722 10723 10724 10724 10724 10723 10724 10726 10727 10727 10726 10726 10726 10725 10724 10723 10722 10722 10722 10721 10721 10720 10720 10720 10719 10718 10717 10716 10716 10715 10714 10714 10713 10712 10710 10709 10708 10706 10703 10701 10701 10700 10698 10697 10698 10697
10744 10748 10744 10734 10728 10726 10729 10731 10732 10734 10735 10736 10738 10738 10740 10739 10738 10736 10732 10730 10732 10738 10741 10737 10738 10739 10733 10726 10720 10717 10716 10714 10713 10714 10715 10716 10718 10716 10713 10713 10714 10717 10718 10717 10718 10718 10718 10719 10720 10720 10719 10719 10720 10719 10718 10718 10717 10716 10716 10715 10715 10715 10714 10714 10713 10712 10711 10710 10710 10709 10708 10708 10707 10706 10704 10703 10701 10699 10697 10695 10695 10694 10691 10690 10690 10689
10742 10744 10735 10726 10724 10724 10724 10723 10722 10726 10729 10731 10731 10732 10735 10733 10730 10733 10728 10723 10727 10732 10734 10733 10734 10735 10729 10722 10716 10713 10715 10713 10710 10710 10708 10709 10711 10710 10708 10707 10708 10711 10712 10711 10711 10712 10712 10712 10713 10713 10713 10713 10713 10712 10712 10712 10712 10711 10710 10710 10709 10709 10709 10708 10708 10707 10705 10704 10703 10702 10701 10701 10701 10699 10697 10696 10694 10692 10691 10689 10688 10687 10685 10683 10683 10682
10741 10737 10727 10723 10721 10719 10718 10716 10714 10717 10723 10725 10724 10724 10728 10725 10722 10728 10726 10719 10723 10727 10727 10727 10730 10732 10726 10718 10712 10709 10712 10711 10707 10707 10704 10702 10702 10701 10701 10701 10701 10704 10705 10706 10705 10705 10706 10706 10707 10707 10706 10707 10706 10706 10707 10706 10706 10705 10704 10704 10704 10703 10703 10702 10701 10700 10699 10698 10697 10696 10694 10694 10693 10691 10690 10689 10687 10685 10684 10682 10682 10681 10678 10677 10676 10675
10736 10729 10722 10721 10716 10713 10714 10711 10706 10707 10714 10718 10717 10716 10719 10718 10715 10721 10721 10716 10720 10723 10722 10721 10726 10729 10721 10714 10710 10705 10707 10708 10705 10704 10700 10697 10696 10693 10693 10693 10694 10697 10698 10699 10699 10698 10700 10700 10701 10701 10700 10701 10700 10700 10701 10700 10699 10699 10699 10698 10697 10697 10696 10696 10695 10694 10693 10691 10690 10689 10687 10686 10685 10684 10682 10681 10680 10678 10677 10675 10674 10674 10672 10670 10669 10668
10730 10720 10713 10716 10714 10710 10709 10708 10702 10696 10703 10714 10712 10705 10706 10709 10710 10712 10712 10711 10716 10720 10717 10716 10721 10725 10719 10712 10708 10702 10703 10703 10701 10700 10694 10692 10693 10688 10685 10685 10686 10690 10692 10692 10693 10692 10693 10694 10694 10695 10695 10695 10695 10694 10693 10693 10692 10692 10692 10691 10691 10690 10689 10689 10688 10687 10686 10684 10683 10681 10679 10678 10677 10677 10675 10674 10673 10671 10669 10668 10667 10666 10665 10663 10662 10661
10725 10712 10706 10708 10708 10706 10705 10704 10697 10686 10693 10709 10708 10696 10695 10699 10702 10703 10703 10704 10710 10714 10714 10713 10714 10718 10718 10711 10704 10700 10700 10698 10694 10691 10686 10685 10687 10684 10680 10678 10677 10680 10684 10685 10686 10686 10686 10687 10688 10688 10688 10688 10687 10687 10686 10685 10685 10685 10685 10684 10684 10683 10682 10681 10680 10680 10678 10677 10675 10673 10672 10670 10670 10670 10669 10667 10665 10663 10662 10661 10660 10658 10657 10656 10654 10653
10714 10707 10706 10703 10699 10700 10700 10696 10690 10682 10688 10701 10699 10691 10690 10690 10691 10694 10695 10696 10701 10705 10708 10709 10705 10707 10713 10709 10700 10698 10699 10696 10689 10683 10679 10678 10678 10677 10674 10672 10670 10672 10675 10676 10677 10679 10679 10680 10680 10680 10680 10679 10678 10678 10677 10677 10676 10677 10677 10677 10676 10675 10674 10673 10672 10671 10669 10668 10667 10665 10664 10662 10662 10662 10661 10660 10657 10655 10654 10652 10651 10650 10648 10647 10646 10644
10703 10701 10702 10699 10697 10696 10692 10687 10683 10679 10682 10689 10688 10686 10685 10684 10684 10685 10686 10688 10690 10695 10703 10704 10695 10692 10704 10706 10698 10698 10698 10692 10686 10679 10674 10672 10672 10672 10668 10664 10663 10665 10667 10668 10669 10670 10671 10671 10671 10671 10670 10669 10669 10669 10668 10667 10667 10668 10668 10668 10667 10666 10665 10663 10662 10661 10660 10659 10658 10656 10655 10653 10653 10653 10653 10652 10649 10646 10645 10644 10642 10641 10639 10638 10636 10635
10693 10694 10695 10694 10694 10690 10685 10681 10678 10674 10674 10677 10677 10678 10679 10678 10679 10677 10679 10680 10680 10688 10697 10696 10686 10679 10692 10703 10697 10695 10694 10687 10683 10677 10672 10669 10668 10668 10663 10657 10658 10660 10662 10663 10662 10662 10663 10663 10663 10662 10662 10661 10661 10660 10659 10659 10658 10659 10659 10659 10658 10657 10656 10654 10652 10651 10650 10650 10649 10647 10645 10643 10642 10643 10644 10644 10642 10638 10637 10635 10633 10632 10630 10628 10626 10625
10682 10684 10688 10687 10685 10683 10679 10675 10672 10668 10666 10667 10667 10669 10670 10670 10671 10669 10672 10672 10672 10684 10689 10684 10678 10671 10683 10700 10695 10689 10688 10681 10677 10673 10670 10667 10664 10663 10658 10650 10651 10654 10656 10658 10657 10655 10654 10654 10653 10653 10653 10653 10653 10653 10652 10651 10651 10651 10651 10651 10650 10648 10647 10646 10644 10642 10641 10641 10641 10639 10637 10634 10632 10632 10633 10634 10633 10631 10629 10627 10625 10623 10621 10618 10617 10615
10674 10677 10679 10677 10675 10673 10669 10666 10665 10662 10659 10657 10658 10661 10659 10660 10662 10661 10664 10664 10665 10677 10679 10673 10669 10665 10679 10693 10687 10683 10681 10675 10672 10669 10667 10665 10659 10659 10655 10645 10642 10646 10649 10652 10651 10648 10646 10645 10645 10645 10645 10645 10645 10645 10644 10644 10644 10644 10643 10643 10642 10640 10639 10639 10636 10634 10633 10632 10632 10631 10629 10626 10624 10622 10621 10621 10622 10622 10620 10618 10615 10612 10611 10609 10606 10604
10667 10671 10670 10667 10666 10661 10656 10656 10657 10654 10650 10648 10651 10652 10648 10649 10652 10651 10654 10655 10658 10668 10667 10662 10661 10665 10678 10684 10677 10675 10673 10667 10668 10666 10663 10661 10654 10654 10653 10644 10638 10640 10642 10644 10643 10641 10640 10638 10637 10637 10637 10638 10638 10637 10637 10638 10637 10636 10636 10634 10633 10632 10631 10631 10629 10627 10625 10623 10623 10622 10620 10617 10615 10613 10610 10608 10608 10609 10609 10607 10605 10602 10600 10598 10596 10594
10656 10662 10663 10658 10655 10652 10648 10648 10646 10644 10642 10641 10645 10641 10636 10640 10640 10637 10642 10645 10650 10658 10656 10652 10655 10665 10675 10674 10667 10667 10664 10661 10662 10659 10656 10653 10649 10649 10650 10642 10634 10634 10636 10636 10635 10633 10632 10632 10630 10630 10630 10630 10630 10630 10630 10630 10630 10629 10628 10626 10624 10623 10623 10622 10621 10619 10617 10615 10614 10611 10609 10607 10605 10602 10600 10596 10593 10594 10594 10593 10592 10590 10588 10586 10584 10582
10639 10651 10660 10647 10639 10644 10644 10639 10634 10633 10635 10638 10638 10629 10628 10633 10624 10615 10625 10636 10640 10645 10648 10648 10650 10661 10667 10663 10661 10659 10657 10656 10653 10650 10646 10643 10643 10644 10644 10638 10629 10627 10628 10627 10627 10625 10623 10623 10623 10623 10622 10622 10621 10621 10622 10621 10621 10620 10618 10617 10615 10613 10613 10612 10612 10610 10607 10606 10604 10601 10598 10598 10596 10593 10589 10585 10582 10580 10579 10578 10577 10576 10574 10572 10570 10569
10621 10637 10653 10638 10629 10636 10637 10631 10625 10620 10626 10633 10630 10624 10624 10622 10607 10597 10609 10623 10624 10627 10642 10646 10644 10653 10657 10653 10654 10653 10650 10648 10643 10641 10639 10637 10636 10636 10636 10631 10624 10620 10618 10617 10618 10616 10614 10613 10613 10615 10615 10615 10613 10612 10612 10612 10611 10611 10609 10607 10605 10603 10603 10602 10601 10599 10596 10595 10593 10590 10588 10587 10586 10583 10579 10576 10573 10569 10565 10563 10562 10561 10560 10559 10557 10555
10608 10620 10636 10630 10625 10629 10626 10621 10617 10611 10615 10622 10621 10619 10615 10605 10597 10593 10595 10604 10605 10606 10629 10642 10637 10642 10649 10646 10647 10645 10640 10637 10634 10634 10634 10632 10630 10628 10627 10623 10617 10614 10609 10606 10607 10605 10604 10604 10602 10604 10605 10606 10606 10603 10603 10603 10601 10601 10598 10596 10595 10593 10593 10591 10589 10587 10585 10583 10581 10578 10577 10576 10575 10573 10569 10567 10564 10560 10555 10551 10548 10547 10547 10546 10545 10543
10598 10599 10614 10621 10616 10617 10616 10611 10608 10606 10605 10605 10605 10606 10600 10593 10594 10590 10582 10586 10589 10587 10607 10630 10629 10630 10639 10642 10640 10634 10630 10628 10627 10628 10627 10624 10621 10619 10618 10613 10608 10609 10604 10597 10595 10592 10592 10593 10591 10592 10593 10593 10594 10593 10594 10594 10593 10591 10586 10584 10584 10583 10583 10580 10578 10576 10574 10572 10570 10566 10565 10564 10564 10562 10558 10556 10554 10551 10547 10542 10537 10534 10533 10533 10533 10531
10589 10578 10588 10605 10604 10603 10604 10602 10602 10602 10595 10587 10585 10585 10583 10583 10585 10582 10572 10570 10574 10571 10583 10608 10618 10620 10630 10635 10629 10622 10621 10621 10621 10621 10617 10613 10611 10609 10608 10604 10599 10600 10599 10593 10587 10581 10579 10578 10578 10580 10582 10582 10581 10581 10582 10584 10584 10580 10574 10573 10574 10573 10572 10570 10568 10566 10565 10562 10559 10556 10554 10553 10552 10550 10548 10545 10543 10540 10537 10533 10529 10524 10520 10519 10518 10517
10577 10563 10563 10580 10588 10587 10588 10593 10596 10592 10581 10572 10571 10570 10571 10572 10570 10566 10559 10557 10560 10557 10560 10577 10593 10611 10624 10622 10617 10614 10613 10614 10612 10609 10605 10601 10599 10598 10597 10594 10590 10588 10588 10586 10580 10573 10568 10564 10563 10567 10571 10572 10570 10569 10569 10571 10570 10566 10563 10563 10564 10562 10561 10560 10557 10555 10554 10552 10549 10547 10544 10542 10541 10539 10537 10534 10531 10529 10526 10522 10519 10516 10511 10508 10505 10502
10561 10551 10547 10556 10564 10569 10577 10585 10582 10574 10566 10559 10557 10558 10560 10562 10556 10548 10544 10546 10550 10544 10541 10544 10555 10592 10620 10610 10606 10610 10603 10601 10600 10593 10592 10591 10587 10586 10584 10582 10579 10574 10575 10576 10571 10564 10558 10553 10552 10555 10559 10559 10558 10556 10556 10556 10554 10551 10550 10550 10550 10551 10550 10549 10546 10544 10542 10540 10539 10537 10534 10532 10531 10528 10526 10523 10520 10517 10514 10511 10509 10506 10502 10498 10494 10491
10545 10540 10536 10537 10543 10550 10562 10569 10562 10557 10556 10549 10543 10543 10546 10548 10544 10535 10529 10535 10540 10530 10526 10522 10519 10561 10609 10601 10591 10599 10589 10583 10586 10579 10580 10581 10574 10572 10570 10567 10565 10561 10561 10563 10559 10554 10549 10546 10544 10546 10548 10545 10541 10540 10541 10541 10539 10538 10539 10538 10537 10539 10538 10536 10533 10531 10530 10529 10528 10526 10523 10521 10520 10517 10514 10511 10508 10506 10502 10500 10497 10494 10492 10488 10484 10480
10532 10527 10524 10524 10529 10532 10539 10548 10548 10546 10544 10537 10531 10531 10533 10534 10530 10524 10518 10520 10523 10512 10511 10511 10495 10525 10585 10588 10572 10581 10576 10566 10569 10568 10566 10564 10558 10556 10553 10548 10548 10547 10547 10546 10543 10542 10540 10537 10534 10533 10534 10532 10527 10524 10523 10523 10523 10525 10526 10525 10525 10527 10526 10523 10521 10519 10518 10517 10515 10513 10512 10511 10508 10504 10502 10498 10495 10493 10490 10487 10485 10481 10479 10476 10472 10468
10520 10513 10508 10509 10514 10515 10517 10526 10533 10535 10532 10525 10521 10520 10521 10521 10519 10515 10508 10504 10502 10494 10497 10499 10481 10499 10557 10570 10553 10561 10564 10554 10555 10555 10549 10544 10542 10542 10538 10532 10532 10532 10532 10530 10527 10527 10526 10524 10520 10517 10517 10516 10513 10510 10509 10509 10510 10510 10510 10510 10511 10513 10511 10508 10507 10506 10504 10502 10501 10500 10500 10498 10494 10491 10488 10484 10481 10479 10477 10474 10471 10468 10465 10462 10459 10455
10502 10497 10492 10489 10493 10498 10502 10509 10516 10520 10516 10508 10507 10509 10509 10510 10508 10502 10498 10490 10482 10481 10486 10481 10466 10482 10527 10543 10536 10543 10549 10543 10543 10540 10531 10526 10527 10527 10523 10519 10519 10517 10516 10516 10514 10511 10508 10505 10503 10501 10500 10498 10496 10496 10497 10498 10498 10498 10497 10497 10496 10496 10494 10493 10492 10491 10489 10487 10487 10487 10485 10483 10480 10476 10473 10470 10468 10466 10463 10460 10457 10454 10451 10448 10445 10441
10480 10476 10475 10469 10466 10472 10481 10491 10498 10499 10494 10489 10491 10495 10495 10495 10492 10485 10483 10476 10468 10473 10476 10464 10456 10471 10496 10509 10514 10526 10531 10529 10530 10525 10516 10511 10510 10511 10509 10506 10504 10503 10502 10502 10498 10493 10490 10487 10485 10483 10481 10479 10478 10479 10482 10484 10485 10484 10483 10483 10482 10481 10480 10478 10477 10476 10475 10474 10473 10472 10471 10469 10466 10462 10458 10455 10453 10450 10448 10445 10442 10439 10436 10434 10431 10427
10459 10455 10460 10455 10445 10448 10455 10463 10471 10470 10466 10466 10470 10475 10477 10476 10473 10469 10463 10459 10460 10461 10456 10452 10458 10465 10470 10476 10487 10502 10510 10512 10514 10510 10502 10497 10493 10494 10495 10492 10490 10489 10489 10488 10484 10478 10473 10469 10467 10466 10463 10462 10462 10464 10466 10469 10470 10469 10467 10467 10466 10466 10465 10463 10461 10461 10460 10459 10458 10458 10456 10453 10450 10447 10443 10440 10437 10435 10432 10429 10426 10423 10421 10419 10416 10413
10438 10431 10441 10442 10432 10434 10437 10440 10446 10444 10438 10441 10444 10448 10453 10454 10453 10451 10443 10444 10448 10440 10434 10448 10458 10451 10448 10455 10463 10475 10486 10492 10493 10489 10485 10483 10480 10478 10477 10475 10474 10475 10476 10476 10472 10464 10457 10451 10449 10447 10445 10445 10447 10450 10452 10453 10454 10454 10454 10453 10452 10450 10449 10447 10445 10445 10445 10444 10443 10442 10440 10437 10434 10432 10428 10424 10422 10420 10417 10414 10411 10408 10405 10403 10400 10397
10418 10409 10419 10424 10417 10419 10421 10420 10425 10426 10422 10423 10422 10422 10428 10431 10430 10428 10424 10428 10432 10423 10422 10436 10438 10429 10432 10440 10445 10453 10462 10464 10463 10463 10466 10468 10468 10464 10459 10456 10459 10461 10462 10462 10456 10448 10442 10436 10433 10430 10427 10428 10431 10432 10433 10435 10437 10439 10439 10439 10438 10436 10433 10431 10430 10431 10430 10429 10428 10425 10423 10421 10419 10416 10413 10410 10407 10404 10401 10398 10395 10392 10389 10386 10384 10380
10401 10394 10402 10405 10398 10399 10403 10402 10404 10407 10405 10405 10405 10405 10408 10409 10408 10407 10407 10413 10416 10407 10406 10412 10410 10411 10421 10427 10430 10436 10438 10434 10431 10436 10443 10446 10448 10448 10441 10438 10442 10443 10443 10443 10437 10431 10427 10422 10417 10415 10412 10411 10412 10412 10414 10417 10420 10422 10423 10424 10423 10420 10416 10415 10415 10415 10414 10413 10412 10409 10408 10406 10403 10400 10397 10394 10391 10388 10385 10382 10378 10375 10372 10369 10366 10363
10386 10380 10387 10388 10376 10374 10386 10389 10386 10385 10382 10380 10385 10392 10393 10392 10394 10395 10393 10394 10391 10385 10388 10391 10387 10393 10408 10413 10411 10412 10412 10409 10406 10410 10416 10421 10426 10426 10417 10414 10418 10416 10414 10415 10412 10408 10405 10402 10399 10397 10395 10394 10395 10396 10398 10401 10403 10404 10406 10408 10405 10401 10399 10399 10399 10398 10397 10396 10395 10393 10391 10388 10385 10382 10379 10376 10374 10371 10368 10365 10362 10359 10355 10352 10349 10346
10371 10366 10371 10370 10355 10353 10373 10378 10368 10367 10362 10354 10361 10374 10381 10382 10383 10381 10377 10375 10373 10370 10372 10374 10369 10374 10390 10393 10385 10383 10388 10388 10385 10388 10394 10399 10404 10401 10392 10392 10396 10391 10386 10388 10389 10385 10382 10381 10378 10376 10374 10374 10376 10380 10382 10384 10386 10388 10390 10390 10386 10384 10384 10384 10384 10382 10380 10379 10376 10374 10371 10369 10366 10364 10361 10359 10357 10354 10351 10348 10345 10342 10338 10335 10332 10329
10359 10355 10356 10352 10335 10334 10355 10361 10353 10350 10338 10330 10346 10365 10370 10370 10366 10362 10361 10364 10365 10361 10355 10353 10354 10362 10369 10367 10360 10361 10365 10367 10369 10374 10377 10378 10378 10376 10372 10373 10375 10371 10368 10369 10369 10365 10363 10364 10364 10361 10358 10356 10356 10359 10362 10364 10368 10371 10372 10370 10368 10368 10368 10367 10366 10364 10362 10360 10358 10355 10353 10351 10350 10347 10344 10343 10340 10337 10334 10330 10327 10324 10321 10318 10316 10313
10346 10342 10339 10335 10321 10317 10333 10342 10334 10320 10308 10316 10343 10358 10356 10354 10352 10348 10349 10353 10353 10348 10340 10336 10339 10345 10347 10343 10340 10342 10346 10351 10356 10359 10359 10356 10353 10352 10354 10356 10356 10356 10357 10355 10351 10348 10348 10350 10352 10350 10347 10344 10342 10343 10344 10347 10352 10353 10351 10350 10350 10351 10350 10348 10347 10346 10345 10343 10340 10338 10337 10335 10333 10330 10328 10326 10323 10320 10317 10314 10311 10308 10304 10302 10300 10298
10322 10320 10317 10317 10310 10304 10313 10320 10305 10289 10296 10317 10333 10338 10337 10339 10339 10335 10333 10337 10338 10333 10326 10321 10320 10324 10324 10322 10324 10327 10331 10337 10338 10338 10340 10339 10335 10333 10336 10340 10342 10341 10341 10338 10335 10335 10336 10338 10339 10337 10334 10331 10329 10328 10330 10333 10336 10336 10336 10335 10334 10334 10333 10332 10331 10330 10329 10326 10323 10321 10320 10319 10316 10314 10313 10310 10307 10305 10302 10299 10296 10293 10289 10287 10285 10283
10300 10297 10293 10291 10288 10287 10291 10293 10283 10278 10293 10305 10307 10315 10323 10323 10323 10318 10311 10316 10322 10314 10304 10302 10304 10308 10308 10306 10309 10312 10316 10318 10318 10320 10326 10325 10321 10318 10318 10321 10326 10327 10326 10325 10323 10323 10324 10324 10323 10320 10317 10315 10312 10313 10315 10317 10318 10319 10321 10320 10319 10319 10318 10317 10316 10316 10314 10310 10308 10307 10306 10304 10302 10300 10298 10296 10294 10291 10288 10284 10281 10278 10275 10274 10271 10268
10285 10279 10273 10266 10264 10268 10268 10268 10269 10271 10278 10284 10289 10301 10308 10304 10306 10302 10289 10291 10298 10288 10280 10288 10294 10296 10295 10294 10295 10297 10299 10300 10300 10307 10312 10307 10302 10304 10304 10304 10308 10311 10313 10312 10310 10309 10310 10309 10306 10303 10300 10298 10296 10296 10298 10299 10301 10304 10305 10305 10305 10305 10304 10303 10304 10303 10300 10297 10295 10295 10293 10292 10290 10288 10285 10283 10280 10277 10274 10270 10267 10264 10262 10260 10257 10254
10269 10264 10261 10250 10247 10253 10250 10246 10252 10254 10257 10271 10281 10285 10286 10285 10288 10283 10267 10265 10269 10261 10263 10278 10283 10280 10280 10280 10279 10281 10282 10281 10283 10292 10295 10289 10287 10291 10291 10290 10290 10291 10293 10294 10293 10294 10294 10292 10290 10288 10285 10283 10281 10280 10279 10280 10283 10287 10289 10290 10291 10290 10289 10291 10291 10288 10284 10282 10282 10281 10280 10279 10277 10274 10271 10269 10266 10262 10259 10256 10253 10251 10248 10245 10242 10238
10256 10252 10248 10237 10232 10239 10236 10229 10235 10238 10241 10254 10262 10265 10266 10265 10263 10257 10244 10242 10248 10245 10247 10259 10262 10259 10262 10262 10261 10264 10267 10266 10269 10276 10278 10276 10277 10277 10274 10273 10273 10271 10272 10275 10276 10277 10278 10276 10274 10272 10270 10269 10267 10265 10263 10264 10268 10270 10271 10273 10273 10274 10275 10276 10274 10270 10267 10267 10267 10267 10266 10264 10261 10258 10255 10252 10250 10247 10245 10242 10239 10236 10233 10229 10225 10222
10244 10239 10235 10226 10220 10223 10220 10214 10217 10221 10223 10230 10236 10242 10246 10245 10243 10237 10224 10224 10234 10231 10227 10233 10236 10237 10244 10247 10247 10250 10253 10253 10256 10260 10261 10260 10262 10260 10257 10257 10256 10254 10255 10256 10256 10258 10260 10260 10258 10256 10254 10253 10252 10249 10248 10251 10254 10254 10254 10255 10256 10258 10259 10258 10255 10252 10251 10252 10252 10251 10250 10247 10244 10242 10239 10236 10234 10232 10230 10228 10225 10222 10218 10214 10209 10206
10232 10226 10220 10215 10210 10210 10205 10199 10200 10204 10205 10207 10211 10216 10222 10227 10226 10217 10205 10209 10220 10217 10211 10212 10214 10218 10225 10230 10232 10236 10238 10237 10238 10243 10244 10243 10244 10245 10243 10240 10238 10238 10239 10240 10241 10242 10242 10243 10243 10241 10239 10238 10236 10235 10234 10236 10238 10238 10237 10238 10240 10242 10242 10240 10237 10235 10233 10234 10234 10233 10231 10229 10226 10225 10223 10220 10218 10217 10215 10213 10211 10207 10203 10198 10194 10191
10217 10210 10205 10203 10200 10199 10192 10184 10183 10186 10187 10189 10194 10199 10202 10202 10199 10193 10191 10196 10201 10199 10197 10195 10195 10199 10204 10207 10212 10217 10220 10221 10222 10224 10227 10228 10229 10230 10229 10225 10223 10222 10221 10223 10227 10229 10228 10228 10227 10226 10225 10224 10222 10221 10220 10220 10222 10223 10222 10222 10224 10225 10224 10223 10220 10216 10214 10215 10217 10215 10212 10210 10208 10206 10205 10204 10203 10202 10201 10199 10196 10192 10187 10184 10180 10178
10192 10188 10189 10191 10186 10179 10174 10170 10167 10169 10175 10181 10184 10185 10183 10176 10170 10170 10176 10181 10179 10176 10176 10176 10177 10179 10181 10186 10191 10194 10198 10203 10204 10206 10210 10212 10214 10215 10215 10213 10211 10209 10208 10208 10210 10212 10213 10213 10213 10212 10211 10209 10208 10207 10206 10205 10206 10206 10205 10206 10207 10207 10207 10206 10202 10198 10198 10199 10199 10197 10194 10192 10191 10189 10189 10189 10188 10187 10186 10184 10180 10176 10173 10169 10166 10164
10167 10167 10166 10169 10166 10157 10152 10157 10161 10162 10168 10173 10170 10165 10161 10155 10149 10150 10155 10161 10160 10155 10152 10156 10159 10160 10161 10165 10170 10172 10177 10182 10185 10189 10193 10195 10198 10199 10200 10200 10199 10198 10198 10196 10194 10194 10194 10194 10195 10196 10194 10193 10192 10191 10191 10190 10190 10190 10189 10188 10189 10188 10189 10188 10186 10183 10183 10182 10181 10180 10177 10175 10173 10173 10173 10172 10172 10172 10171 10168 10164 10161 10158 10155 10153 10151
10146 10150 10143 10140 10144 10140 10134 10142 10154 10155 10154 10156 10151 10144 10140 10135 10133 10136 10140 10143 10142 10136 10133 10136 10140 10142 10142 10143 10148 10153 10158 10161 10165 10170 10174 10176 10179 10181 10181 10183 10184 10183 10184 10184 10182 10180 10178 10177 10178 10177 10175 10174 10174 10174 10174 10174 10174 10175 10173 10171 10170 10170 10170 10170 10169 10167 10167 10166 10164 10162 10161 10158 10157 10156 10156 10155 10156 10156 10154 10151 10149 10146 10143 10140 10139 10137
10123 10127 10124 10118 10120 10121 10121 10129 10136 10133 10135 10142 10135 10123 10116 10113 10116 10124 10128 10128 10124 10120 10118 10119 10121 10126 10127 10125 10128 10135 10140 10142 10145 10149 10152 10155 10158 10160 10161 10163 10165 10166 10166 10167 10167 10165 10163 10163 10163 10161 10158 10157 10156 10155 10156 10156 10157 10158 10157 10155 10154 10154 10154 10152 10151 10151 10150 10148 10147 10146 10144 10143 10141 10140 10139 10139 10140 10140 10139 10137 10135 10132 10129 10126 10125 10123
10107 10102 10103 10103 10101 10099 10105 10115 10112 10102 10111 10126 10120 10104 10096 10094 10100 10108 10110 10107 10105 10103 10103 10103 10104 10109 10113 10112 10113 10117 10123 10127 10128 10129 10132 10135 10137 10140 10143 10143 10145 10147 10147 10148 10148 10148 10147 10148 10148 10147 10144 10142 10139 10137 10136 10139 10141 10141 10140 10141 10141 10140 10139 10137 10136 10135 10134 10132 10131 10130 10129 10127 10125 10124 10124 10125 10125 10126 10125 10124 10122 10120 10117 10114 10111 10109
10096 10086 10084 10088 10085 10079 10082 10091 10087 10078 10086 10100 10096 10084 10079 10078 10083 10089 10090 10086 10084 10085 10087 10089 10089 10091 10094 10097 10098 10100 10106 10112 10113 10112 10115 10118 10119 10120 10122 10124 10126 10128 10129 10129 10130 10129 10129 10130 10130 10130 10128 10128 10126 10121 10118 10122 10125 10123 10123 10126 10126 10125 10125 10123 10122 10120 10118 10117 10116 10115 10113 10111 10110 10109 10109 10110 10111 10112 10112 10111 10110 10107 10105 10101 10098 10096
10078 10074 10071 10066 10062 10063 10067 10065 10058 10055 10067 10079 10071 10058 10056 10060 10064 10068 10069 10069 10068 10068 10070 10074 10076 10076 10076 10078 10080 10082 10086 10094 10096 10095 10097 10102 10104 10103 10103 10104 10108 10110 10110 10111 10111 10111 10112 10112 10112 10111 10111 10113 10113 10107 10103 10106 10108 10106 10106 10107 10108 10108 10107 10107 10105 10104 10103 10102 10102 10101 10098 10095 10093 10093 10094 10096 10097 10096 10096 10096 10095 10093 10091 10088 10085 10082
10055 10058 10060 10047 10038 10047 10054 10045 10032 10031 10047 10061 10054 10035 10031 10038 10044 10047 10050 10052 10052 10053 10055 10057 10061 10063 10062 10062 10063 10063 10066 10072 10077 10078 10080 10085 10088 10086 10085 10087 10089 10091 10093 10093 10092 10093 10094 10093 10093 10094 10095 10098 10099 10095 10091 10092 10093 10091 10089 10089 10089 10090 10089 10087 10087 10087 10087 10087 10086 10085 10082 10079 10077 10077 10078 10080 10080 10079 10078 10078 10078 10078 10077 10075 10072 10069
10036 10035 10036 10028 10022 10031 10037 10030 10020 10016 10023 10037 10037 10024 10017 10020 10025 10028 10032 10032 10032 10034 10037 10039 10043 10048 10049 10049 10048 10046 10047 10052 10057 10059 10061 10066 10070 10069 10068 10069 10071 10074 10076 10075 10073 10073 10074 10073 10073 10075 10077 10081 10082 10080 10078 10078 10078 10076 10074 10073 10072 10072 10071 10070 10070 10070 10070 10070 10070 10068 10067 10066 10065 10063 10063 10063 10063 10062 10061 10061 10061 10062 10062 10061 10059 10057